Regional Weather Roundup
Issued by NWS Cleveland, OH

Home | Current Version | Previous Version | Graphics & Text | Print | Product List | Glossary On
Versions: 1 2 3 4 5 6 7 8 9 10 11 12 13 14 15 16 17 18 19 20 21 22 23 24 25 26 27 28 29 30 31 32 33 34 35 36 37 38 39 40 41 42 43 44 45 46 47 48 49 50
000
ASUS41 KCLE 221510
RWRCLE
OHIO REGIONAL WEATHER ROUNDUP
NATIONAL WEATHER SERVICE WILMINGTON, OH
1100 AM EDT TUE MAY 22 2018

NOTE: "FAIR" INDICATES FEW OR NO CLOUDS BELOW 12,000 FEET WITH NO
SIGNIFICANT WEATHER AND/OR OBSTRUCTIONS TO VISIBILITY.

OHZ001>008-015>018-024>027-034-035-043-044-221600-
   NORTHWEST OHIO

CITY           SKY/WX    TMP DP  RH WIND       PRES   REMARKS
DEFIANCE       CLOUDY    69  67  93 W6        30.00S FOG
FINDLAY        PTSUNNY   76  68  76 SW10      30.00S
TOLEDO EXPRESS CLOUDY    67  66  97 W8        30.00R FOG
TOLEDO EXEC    CLOUDY    71  66  84 W9        30.01R
LIMA           PTSUNNY   73  68  84 SW12      30.03R
$$

OHZ009>014-019>023-028>033-038-089-221600-
   NORTHEAST OHIO

CITY           SKY/WX    TMP DP  RH WIND       PRES   REMARKS
CLE-HOPKINS    CLOUDY    72  67  84 SW10      30.02S
CLE-LAKEFRONT  CLOUDY    69  64  84 SW7       29.99S
CUY CO. ARPT   CLOUDY    70  68  94 W12       30.01F
LORAIN-ELYRIA  CLOUDY    71  63  75 SW9       30.01S
ASHTABULA      CLOUDY    69  66  90 SW8       30.01F
AKRON-CANTON   CLOUDY    70  64  81 W7        30.04S
WOOSTER        CLOUDY    71  67  87 W10       30.04S
MANSFIELD      CLOUDY    71  67  87 SW8       30.04S
YOUNGSTOWN     CLOUDY    68  65  90 SW9       30.03F
$$

OHZ042-051>053-060>062-070>072-077>081-221600-
  SOUTHWEST OHIO

CITY           SKY/WX    TMP DP  RH WIND       PRES   REMARKS
CINC-COVINGTON PTSUNNY   74  68  81 S8        30.07S
CINC-LUNKEN    PTSUNNY   75  72  90 S5        30.06F
HAMILTON       CLOUDY    76  71  85 VRB3      30.06F
DAYTON         CLOUDY    72  69  90 S8        30.07S
WRIGHT-PAT AFB PTSUNNY   74  68  82 SW8       30.05S
DAYTON GENERAL CLOUDY    73  67  81 SW7       30.06S
WILMINGTON     CLOUDY    71  69  93 S8        30.07S
$$

OHZ036-037-039>041-045>050-054>059-063>069-073>076-082>088-221600-
  CENTRAL AND SOUTHEAST OHIO

CITY           SKY/WX    TMP DP  RH WIND       PRES   REMARKS
COLUMBUS       CLOUDY    71  66  84 SW9       30.05S
OSU AIRPORT    CLOUDY    73  67  81 SW10      30.05S
BOLTON FIELD   CLOUDY    72  68  88 W7        30.06S
RICKENBACK AFB CLOUDY    72  69  89 MISG      30.05S
NEWARK         CLOUDY    71  66  84 SW8       30.06R
MARION         CLOUDY    73  67  81 SW10      30.04S
LANCASTER      CLOUDY    71  68  90 W7        30.07S
ZANESVILLE     CLOUDY    70  66  87 SW5       30.06S
NEW PHILLY     CLOUDY    69  65  86 SW3       30.05S
$$



USA.gov is the U.S. government's official web portal to all federal, state and local government web resources and services.